Hourly Data Report for October 03, 2017

All times are specified in Local Standard Time (LST). Add 1 hour to adjust for Daylight Saving Time where and when it is observed.

SUDBURY A
ONTARIO

46°37'32.000" N
80°47'52.000" W
348.40 m
6068153
71730
YSB

Download Data

Hourly Data (October 2017)
Hourly Data Report for October 3, 2017
Temp Definition
°C
Dew Point Temp Definition
°C
Rel Hum Definition
%
Wind Dir Definition
10's deg

Wind Spd Definition
km/h
Visibility Definition
km
Stn Press Definition
kPa
Hmdx Definition


Wind Chill Definition


Weather Definition


TIME
00:00 Legend Double Dagger 11.7 7.2 74 16 21 24.1 98.57     LegendNANA
01:00 Legend Double Dagger 10.6 7.2 79 16 14 24.1 98.60     Mostly Cloudy
02:00 Legend Double Dagger 10.4 7.6 83 16 16 24.1 98.61     LegendNANA
03:00 Legend Double Dagger 9.7 7.8 88 16 18 24.1 98.57     LegendNANA
04:00 Legend Double Dagger 9.5 8.1 91 15 16 24.1 98.57     Mainly Clear
05:00 Legend Double Dagger 9.3 8.1 92 16 21 24.1 98.61     LegendNANA
06:00 Legend Double Dagger 9.1 8.3 94 17 12 32.2 98.63     LegendNANA
07:00 Legend Double Dagger 9.4 8.5 94 15 17 32.2 98.62     Mostly Cloudy
08:00 Legend Double Dagger 10.2 9.3 95 17 17 24.1 98.61     LegendNANA
09:00 Legend Double Dagger 12.8 10.7 87 17 14 24.1 98.59     LegendNANA
10:00 Legend Double Dagger 16.4 11.9 74 17 18 32.2 98.57     Mainly Clear
11:00 Legend Double Dagger 19.1 12.6 66 18 26 32.2 98.50     LegendNANA
12:00 Legend Double Dagger 20.9 13.4 62 18 28 32.2 98.42     LegendNANA
13:00 Legend Double Dagger 22.1 11.2 49 23 28 32.2 98.36     Mostly Cloudy
14:00 Legend Double Dagger 22.9 12.0 50 21 28 32.2 98.32 25   LegendNANA
15:00 Legend Double Dagger 22.6 11.8 50 21 29 32.2 98.26 25   LegendNANA
16:00 Legend Double Dagger 21.8 11.5 52 19 36 32.2 98.19     Mainly Clear
17:00 Legend Double Dagger 20.4 11.7 57 19 35 32.2 98.17     LegendNANA
18:00 Legend Double Dagger 19.3 12.2 63 19 32 32.2 98.16     LegendNANA
19:00 Legend Double Dagger 18.7 12.7 68 20 18 24.1 98.20     Mostly Cloudy
20:00 Legend Double Dagger 18.8 13.2 70 19 25 24.1 98.11     LegendNANA
21:00 Legend Double Dagger 19.7 13.7 68 20 27 24.1 98.07     LegendNANA
22:00 Legend Double Dagger 19.7 14.3 71 19 30 24.1 98.02     Rain Showers
23:00 Legend Double Dagger 18.6 14.7 78 19 24 24.1 97.98     LegendNANA

Notes on Data Quality.

Legend

  • E = Estimated
  • M = Missing
  • NA = Not Available
  • ‡ = Partner data that is not subject to review by the National Climate Archives
Date modified: